Tracking 18850 objects as of 22-Nov-2017
HD Live streaming from Space Station
objects crossing your sky now

FENGYUN 1C DEB

Track FENGYUN 1C DEB now!
10-day predictions


NORAD ID: 31742
Int'l Code: 1999-025CER
Perigee: 736.2 km
Apogee: 860.5 km
Inclination: 98.8 °
Period: 100.7 minutes
Semi major axis: 7169 km
RCS: 0.0202 m2 (small)
Launch date: May 10, 1999
Source: People's Republic of China (PRC)
Launch site: Taiyaun Space Center, China (TSC)

Note: This is SATELLITE DEBRIS
aabbcc
Your satellite tracking list
Your tracking list is empty




NASA's NSSDC Master Catalog

Two Line Element Set (TLE):
1 31742U 99025CER 17324.52731353  .00000449  00000-0  18363-3 0  9999
2 31742  98.7710  67.4620 0086695 305.4971  53.8145 14.30165812547024
Source of the keplerian elements: AFSPC